Regional Weather Roundup
Issued by NWS

Home | Current Version | Previous Version | Text Only | Print | Product List | Glossary On
Versions: 1 2 3 4 5 6 7 8 9 10 11 12 13 14 15 16 17 18 19 20 21 22 23 24 25 26 27 28 29 30 31 32 33 34 35 36 37 38 39 40 41 42 43 44 45 46 47 48 49 50
254
ASUS43 KOAX 222302
RWRNE

WEATHER ROUNDUP FOR NEBRASKA
NATIONAL WEATHER SERVICE OMAHA NE
600 PM CDT FRI SEP 22 2017

NOTES: SATELLITE DATA IS BEING USED TO AUGMENT CLOUD COVER ABOVE
       12000 FEET.
       "FAIR" INDICATES FEW OR NO CLOUDS BELOW 12,000 FEET WITH NO
       SIGNIFICANT WEATHER AND/OR OBSTRUCTIONS TO VISIBILITY.


NEZ001>004-019>022-054>056-230000-
NEBRASKA PANHANDLE

CITY           SKY/WX    TMP DP  RH WIND       PRES   REMARKS
SCOTTSBLUFF    CLOUDY    71  45  39 NE7       29.83R
ALLIANCE       SUNNY     71  43  36 NE10      29.82F
CHADRON        SUNNY     69  41  36 NE17G25   29.84R
GORDON         FAIR      65  43  44 NE12      29.86R
KIMBALL        SUNNY     68  45  44 N13G18    29.85R
SIDNEY         CLOUDY    74  45  35 NE20G26   29.80S
$$

NEZ057>060-069>072-079>082-230000-
SOUTHWEST NEBRASKA

CITY           SKY/WX    TMP DP  RH WIND       PRES   REMARKS
NORTH PLATTE   CLOUDY    92  49  22 S23G30    29.69S
IMPERIAL       CLOUDY    90  28  11 S21G37    29.71R
LEXINGTON      PTSUNNY   93  53  25 S22G28    29.71S HX  90
MCCOOK         PTSUNNY   95  51  22 S25G38    29.70F HX  92
OGALLALA       CLOUDY    82  42  24 CALM      29.73S
$$

NEZ005>010-023>029-035>040-094-230000-
NORTH CENTRAL NEBRASKA

CITY           SKY/WX    TMP DP  RH WIND       PRES   REMARKS
VALENTINE      CLOUDY    70  49  47 NW17      29.79F
AINSWORTH      CLOUDY    70  54  55 N17       29.79R
BROKEN BOW     MOSUNNY   94  52  24 S20G38    29.71S HX  91
O`NEILL        CLOUDY    73  64  72 NW10      29.75R
ORD            PTSUNNY   92  52  25 S21G32    29.69S
THEDFORD       MOSUNNY   73  52  47 N9G20     29.78R
$$

NEZ041-046>049-061>064-073>077-083>087-230000-
SOUTH CENTRAL NEBRASKA

CITY           SKY/WX    TMP DP  RH WIND       PRES   REMARKS
GRAND ISLAND   CLOUDY    90  62  39 S23G31    29.76R HX  90
AURORA         CLOUDY    90  63  40 S17G25    29.78R HX  90
HASTINGS       CLOUDY    91  58  32 S15G31    29.78R HX  90
HEBRON         CLOUDY    93  61  34 S18G24    29.80S HX  93
HOLDREGE       CLOUDY    91  50  24 S22G30    29.74S
KEARNEY        PTSUNNY   91  61  36 S23G31    29.74S HX  91
YORK           CLOUDY    91  61  35 S15G24    29.79S HX  91
$$

NEZ011>018-030>034-042>045-230000-
NORTHEAST NEBRASKA

CITY           SKY/WX    TMP DP  RH WIND       PRES   REMARKS
NORFOLK        CLOUDY    91  62  37 S21G30    29.72S HX  91
ALBION         CLOUDY    91  66  44 S23G30    29.74R HX  93
BLAIR          SUNNY     91  67  44 S18G31    29.82R HX  94
COLUMBUS       MOSUNNY   90  65  43 S21G29    29.76S HX  92
FREMONT        SUNNY     92  63  37 S16G24    29.79S HX  93
TEKAMAH        SUNNY     91  68  46 SE13G24   29.78R HX  95
WAYNE          MOSUNNY   87  66  49 S16       29.74F
$$

NEZ050>053-065>068-078-088>093-230000-
SOUTHEAST NEBRASKA

CITY           SKY/WX    TMP DP  RH WIND       PRES   REMARKS
LINCOLN        MOSUNNY   93  64  38 S24G31    29.80S HX  94
OMAHA EPPLEY   MOSUNNY   92  68  45 SE21G31   29.81S HX  96
BEATRICE       MOSUNNY   91  68  46 S12G22    29.82S HX  95
FALLS CITY     SUNNY     88  66  48 S18G28    29.86S HX  90
NEBRASKA CITY  SUNNY     89  68  49 S17G30    29.86R HX  92
PLATTSMOUTH    SUNNY     90  68  48 S15G23    29.84R HX  94
$$

NEZ044-045-051>053-067-230000-
OMAHA AREA

CITY           SKY/WX    TMP DP  RH WIND       PRES   REMARKS
OMAHA EPPLEY   MOSUNNY   92  68  45 SE21G31   29.81S HX  96
BLAIR          SUNNY     91  67  44 S18G31    29.82R HX  94
FREMONT        SUNNY     92  63  37 S16G24    29.79S HX  93
MILLARD        SUNNY     93  69  44 SE17G25   29.81R HX  98
OFFUTT AFB     SUNNY     90  68  48 SE18      29.82R HX  94
PLATTSMOUTH    SUNNY     90  68  48 S15G23    29.84R HX  94
WAHOO          FAIR      92  62  36 S22G29    29.80R HX  92
$$




USA.gov is the U.S. government's official web portal to all federal, state and local government web resources and services.